ARG1816 SABE-SAVE

Flight info

Callsign ARG1816
Flight time 2h 0m
Altitude 36000
Route PAL9 TORUL UT654 BIXIM UW41 NITLO DCT OPLAS
Aircraft B738/M-SDE2E3FGHIRWXY/LB1

Departure

Time 2026-04-20 16:05
Airport Aeroparque Jorge Newbery (SABE)

Arrival

Time 2026-04-20 18:05
Airport Esquel Brigadier Antonio Parodi International Airport (SAVE)
Time Latitude Longitude Altitude Speed Heading
2026-04-20 15:22 -34.55718 -58.41404 24 ft 0 kts 31°
2026-04-20 15:54 -34.55721 -58.41406 28 ft 3 kts 31°
2026-04-20 15:54 -34.55744 -58.41422 28 ft 4 kts 13°
2026-04-20 15:54 -34.55762 -58.41419 28 ft 2 kts 304°
2026-04-20 15:55 -34.55777 -58.41393 28 ft 4 kts 304°
2026-04-20 15:55 -34.55780 -58.41387 24 ft 0 kts 304°
2026-04-20 15:58 -34.55771 -58.41404 30 ft 4 kts 304°
2026-04-20 15:59 -34.55752 -58.41437 29 ft 5 kts 303°
2026-04-20 15:59 -34.55736 -58.41472 26 ft 5 kts 298°
2026-04-20 15:59 -34.55721 -58.41508 24 ft 5 kts 298°
2026-04-20 15:59 -34.55719 -58.41544 26 ft 5 kts 236°
2026-04-20 16:00 -34.55745 -58.41567 28 ft 5 kts 216°
2026-04-20 16:00 -34.55771 -58.41589 26 ft 5 kts 213°
2026-04-20 16:00 -34.55790 -58.41617 28 ft 5 kts 263°
2026-04-20 16:00 -34.55776 -58.41659 27 ft 6 kts 298°
2026-04-20 16:01 -34.55755 -58.41708 25 ft 7 kts 296°
2026-04-20 16:01 -34.55735 -58.41757 24 ft 6 kts 297°
2026-04-20 16:01 -34.55711 -58.41802 26 ft 6 kts 305°
2026-04-20 16:01 -34.55684 -58.41849 26 ft 8 kts 304°
2026-04-20 16:02 -34.55643 -58.41924 27 ft 13 kts 304°
2026-04-20 16:02 -34.55584 -58.42029 24 ft 16 kts 304°
2026-04-20 16:02 -34.55521 -58.42132 26 ft 15 kts 308°
2026-04-20 16:02 -34.55460 -58.42230 26 ft 14 kts 307°
2026-04-20 16:03 -34.55405 -58.42317 27 ft 11 kts 307°
2026-04-20 16:03 -34.55369 -58.42390 28 ft 10 kts 285°
2026-04-20 16:03 -34.55360 -58.42466 24 ft 8 kts 266°
2026-04-20 16:03 -34.55391 -58.42508 25 ft 5 kts 206°
2026-04-20 16:04 -34.55418 -58.42487 25 ft 5 kts 122°
2026-04-20 16:04 -34.55521 -58.42302 27 ft 63 kts 124°
2026-04-20 16:04 -34.55929 -58.41574 25 ft 140 kts 125°
2026-04-20 16:04 -34.56556 -58.40490 490 ft 164 kts 126°
2026-04-20 16:05 -34.57230 -58.39354 1438 ft 173 kts 119°
2026-04-20 16:05 -34.57572 -58.37954 2079 ft 185 kts 81°
2026-04-20 16:05 -34.57052 -58.36492 2557 ft 193 kts 47°
2026-04-20 16:05 -34.56151 -58.35190 3064 ft 206 kts 47°
2026-04-20 16:06 -34.55335 -58.33738 3565 ft 218 kts 62°
2026-04-20 16:06 -34.54671 -58.31967 3854 ft 245 kts 58°
2026-04-20 16:06 -34.53749 -58.30137 4509 ft 255 kts 56°
2026-04-20 16:06 -34.52550 -58.28584 5287 ft 255 kts 26°
2026-04-20 16:07 -34.50834 -58.28193 6107 ft 257 kts 351°
2026-04-20 16:07 -34.49241 -58.29140 6939 ft 263 kts 317°
2026-04-20 16:07 -34.48364 -58.31093 7716 ft 274 kts 283°
2026-04-20 16:07 -34.48556 -58.33404 8536 ft 285 kts 249°
2026-04-20 16:08 -34.49619 -58.35449 9403 ft 289 kts 238°
2026-04-20 16:08 -34.50778 -58.37453 10194 ft 292 kts 240°
2026-04-20 16:08 -34.51903 -58.39568 10597 ft 309 kts 242°
2026-04-20 16:08 -34.53033 -58.41899 10777 ft 332 kts 244°
2026-04-20 16:09 -34.54176 -58.44431 11021 ft 351 kts 245°
2026-04-20 16:09 -34.55322 -58.47078 11601 ft 357 kts 245°
2026-04-20 16:09 -34.56462 -58.49755 12377 ft 357 kts 245°
2026-04-20 16:09 -34.57633 -58.52420 13159 ft 360 kts 240°
2026-04-20 16:10 -34.59272 -58.54753 13830 ft 369 kts 225°
2026-04-20 16:10 -34.61367 -58.56598 14453 ft 376 kts 213°
2026-04-20 16:10 -34.63769 -58.57920 15107 ft 383 kts 202°
2026-04-20 16:10 -34.66389 -58.58638 15763 ft 391 kts 189°
2026-04-20 16:11 -34.69133 -58.58500 16321 ft 402 kts 171°
2026-04-20 16:11 -34.71838 -58.57574 16941 ft 406 kts 166°
2026-04-20 16:11 -34.74539 -58.56513 17545 ft 410 kts 166°
2026-04-20 16:11 -34.77274 -58.55476 18104 ft 412 kts 169°
2026-04-20 16:12 -34.80091 -58.55247 18593 ft 405 kts 193°
2026-04-20 16:12 -34.82740 -58.56261 19130 ft 397 kts 211°
2026-04-20 16:12 -34.85033 -58.58086 19652 ft 392 kts 225°
2026-04-20 16:12 -34.86827 -58.60549 20148 ft 389 kts 236°
2026-04-20 16:13 -34.88442 -58.63205 20647 ft 391 kts 237°
2026-04-20 16:13 -34.89499 -58.64987 20970 ft 393 kts 238°
2026-04-20 16:13 -34.91638 -58.68613 21626 ft 396 kts 238°
2026-04-20 16:13 -34.92708 -58.70417 21944 ft 397 kts 238°
2026-04-20 16:14 -34.94336 -58.73147 22427 ft 399 kts 238°
2026-04-20 16:14 -34.95980 -58.75886 22889 ft 401 kts 238°
2026-04-20 16:14 -34.97603 -58.78576 23864 ft 388 kts 238°
2026-04-20 16:14 -34.99181 -58.81182 24757 ft 375 kts 238°
2026-04-20 16:15 -35.00707 -58.83702 25671 ft 363 kts 239°
2026-04-20 16:15 -35.02195 -58.86166 26303 ft 360 kts 240°
2026-04-20 16:15 -35.03682 -58.88640 26674 ft 364 kts 240°
2026-04-20 16:15 -35.05188 -58.91149 27014 ft 368 kts 240°
2026-04-20 16:16 -35.06703 -58.93673 27426 ft 370 kts 240°
2026-04-20 16:16 -35.08228 -58.96209 27841 ft 371 kts 240°
2026-04-20 16:16 -35.09760 -58.98758 28238 ft 373 kts 241°
2026-04-20 16:16 -35.11301 -59.01324 28654 ft 375 kts 241°
2026-04-20 16:17 -35.12844 -59.03895 29076 ft 376 kts 242°
2026-04-20 16:17 -35.14395 -59.06481 29433 ft 378 kts 242°
2026-04-20 16:17 -35.15953 -59.09082 29789 ft 381 kts 242°
2026-04-20 16:17 -35.17457 -59.11742 34973 ft 380 kts 248°
2026-04-20 16:18 -35.18753 -59.14670 34303 ft 404 kts 251°
2026-04-20 16:18 -35.20246 -59.17694 34262 ft 419 kts 243°
2026-04-20 16:18 -35.22147 -59.20433 34637 ft 423 kts 238°
2026-04-20 16:18 -35.24058 -59.23152 34853 ft 420 kts 241°
2026-04-20 16:19 -35.25845 -59.25984 34960 ft 420 kts 243°
2026-04-20 16:19 -35.27545 -59.28871 35086 ft 420 kts 244°
2026-04-20 16:19 -35.29281 -59.31912 35282 ft 420 kts 244°
2026-04-20 16:20 -35.36186 -59.44032 36094 ft 421 kts 244°
2026-04-20 16:20 -35.37887 -59.46975 36089 ft 424 kts 244°
2026-04-20 16:21 -35.41335 -59.52846 36084 ft 423 kts 243°
2026-04-20 16:21 -35.44762 -59.58669 36087 ft 420 kts 244°
2026-04-20 16:22 -35.48159 -59.64470 36096 ft 418 kts 244°
2026-04-20 16:22 -35.51536 -59.70259 36090 ft 416 kts 244°
2026-04-20 16:23 -35.54901 -59.76039 36108 ft 416 kts 244°
2026-04-20 16:23 -35.58261 -59.81821 36100 ft 416 kts 244°
2026-04-20 16:24 -35.61623 -59.87617 36099 ft 417 kts 244°
2026-04-20 16:24 -35.64989 -59.93428 36106 ft 418 kts 244°
2026-04-20 16:25 -35.68361 -59.99259 36104 ft 419 kts 244°
2026-04-20 16:25 -35.71743 -60.05115 36109 ft 420 kts 244°
2026-04-20 16:26 -35.75130 -60.10990 36106 ft 421 kts 244°
2026-04-20 16:26 -35.78522 -60.16884 36105 ft 422 kts 244°
2026-04-20 16:27 -35.81917 -60.22793 36119 ft 423 kts 244°
2026-04-20 16:27 -35.85314 -60.28714 36105 ft 423 kts 244°
2026-04-20 16:28 -35.88708 -60.34641 36119 ft 423 kts 244°
2026-04-20 16:28 -35.92097 -60.40570 36122 ft 422 kts 244°
2026-04-20 16:29 -35.95482 -60.46501 36148 ft 422 kts 244°
2026-04-20 16:29 -35.98858 -60.52430 36125 ft 422 kts 244°
2026-04-20 16:30 -36.05295 -60.63759 36119 ft 421 kts 245°
2026-04-20 16:31 -36.08650 -60.69679 36119 ft 420 kts 245°
2026-04-20 16:31 -36.11995 -60.75590 36143 ft 419 kts 245°
2026-04-20 16:32 -36.15328 -60.81512 36124 ft 419 kts 245°
2026-04-20 16:32 -36.18647 -60.87443 36132 ft 419 kts 245°
2026-04-20 16:33 -36.21962 -60.93376 36124 ft 419 kts 245°
2026-04-20 16:33 -36.25275 -60.99314 36121 ft 419 kts 245°
2026-04-20 16:34 -36.28584 -61.05253 36141 ft 419 kts 245°
2026-04-20 16:34 -36.31894 -61.11205 36135 ft 420 kts 245°
2026-04-20 16:35 -36.35208 -61.17174 36163 ft 420 kts 245°
2026-04-20 16:35 -36.38525 -61.23158 36142 ft 421 kts 245°
2026-04-20 16:36 -36.41841 -61.29154 36140 ft 421 kts 245°
2026-04-20 16:36 -36.45156 -61.35158 36154 ft 422 kts 246°
2026-04-20 16:37 -36.48470 -61.41174 36149 ft 422 kts 246°
2026-04-20 16:37 -36.51786 -61.47204 36148 ft 423 kts 246°
2026-04-20 16:38 -36.55100 -61.53240 36140 ft 423 kts 246°
2026-04-20 16:38 -36.58413 -61.59282 36140 ft 422 kts 246°
2026-04-20 16:39 -36.61400 -61.64738 36144 ft 420 kts 246°
2026-04-20 16:39 -36.64682 -61.70747 36146 ft 419 kts 246°
2026-04-20 16:40 -36.67952 -61.76745 36155 ft 418 kts 246°
2026-04-20 16:40 -36.71210 -61.82731 36154 ft 417 kts 246°
2026-04-20 16:41 -36.74462 -61.88718 36154 ft 417 kts 246°
2026-04-20 16:41 -36.77714 -61.94717 36205 ft 418 kts 246°
2026-04-20 16:42 -36.80974 -62.00741 36164 ft 419 kts 246°
2026-04-20 16:42 -36.84230 -62.06762 36151 ft 418 kts 246°
2026-04-20 16:43 -36.87468 -62.12761 36166 ft 416 kts 246°
2026-04-20 16:43 -36.90696 -62.18755 36158 ft 415 kts 246°
2026-04-20 16:44 -36.93910 -62.24735 36169 ft 414 kts 247°
2026-04-20 16:44 -36.97116 -62.30710 36166 ft 414 kts 247°
2026-04-20 16:45 -37.00316 -62.36686 36165 ft 413 kts 247°
2026-04-20 16:45 -37.03510 -62.42659 36170 ft 413 kts 247°
2026-04-20 16:46 -37.06704 -62.48645 36171 ft 414 kts 247°
2026-04-20 16:46 -37.09898 -62.54641 36188 ft 414 kts 247°
2026-04-20 16:47 -37.13098 -62.60659 36178 ft 415 kts 248°
2026-04-20 16:47 -37.16300 -62.66692 36176 ft 416 kts 248°
2026-04-20 16:48 -37.19509 -62.72749 36180 ft 418 kts 248°
2026-04-20 16:48 -37.22725 -62.78829 36183 ft 418 kts 248°
2026-04-20 16:49 -37.25942 -62.84921 36195 ft 419 kts 248°
2026-04-20 16:49 -37.29160 -62.91029 36186 ft 420 kts 248°
2026-04-20 16:50 -37.32381 -62.97150 36188 ft 420 kts 248°
2026-04-20 16:50 -37.35811 -63.03159 36177 ft 435 kts 238°
2026-04-20 16:51 -37.40059 -63.08626 36185 ft 438 kts 237°
2026-04-20 16:51 -37.44350 -63.14065 36218 ft 438 kts 237°
2026-04-20 16:52 -37.48624 -63.19540 36199 ft 438 kts 237°
2026-04-20 16:52 -37.52885 -63.25045 36202 ft 439 kts 237°
2026-04-20 16:53 -37.57141 -63.30563 36189 ft 439 kts 237°
2026-04-20 16:53 -37.61393 -63.36087 36196 ft 439 kts 237°
2026-04-20 16:54 -37.65640 -63.41612 36193 ft 439 kts 238°
2026-04-20 16:54 -37.69911 -63.47181 36200 ft 439 kts 237°
2026-04-20 16:55 -37.74131 -63.52692 36202 ft 440 kts 237°
2026-04-20 16:55 -37.78409 -63.58289 36199 ft 440 kts 237°
2026-04-20 16:56 -37.82662 -63.63861 36202 ft 440 kts 237°
2026-04-20 16:56 -37.86892 -63.69415 36204 ft 442 kts 237°
2026-04-20 16:57 -37.91156 -63.75021 36223 ft 442 kts 237°
2026-04-20 16:57 -37.95450 -63.80678 36209 ft 443 kts 236°
2026-04-20 16:58 -37.99712 -63.86302 36204 ft 443 kts 236°
2026-04-20 16:58 -38.03977 -63.91940 36204 ft 443 kts 236°
2026-04-20 16:59 -38.08240 -63.97586 36208 ft 443 kts 237°
2026-04-20 16:59 -38.12499 -64.03236 36207 ft 443 kts 237°
2026-04-20 17:00 -38.18885 -64.11731 36222 ft 444 kts 236°
2026-04-20 17:01 -38.23148 -64.17412 36213 ft 444 kts 236°
2026-04-20 17:01 -38.27412 -64.23106 36213 ft 444 kts 236°
2026-04-20 17:02 -38.31673 -64.28806 36203 ft 445 kts 236°
2026-04-20 17:02 -38.35937 -64.34520 36213 ft 444 kts 236°
2026-04-20 17:03 -38.40195 -64.40238 36212 ft 445 kts 236°
2026-04-20 17:03 -38.44458 -64.45972 36212 ft 446 kts 236°
2026-04-20 17:04 -38.48723 -64.51719 36217 ft 447 kts 236°
2026-04-20 17:04 -38.52992 -64.57483 36207 ft 447 kts 236°
2026-04-20 17:05 -38.57262 -64.63258 36202 ft 447 kts 236°
2026-04-20 17:05 -38.61525 -64.69033 36208 ft 446 kts 236°
2026-04-20 17:06 -38.65777 -64.74806 36213 ft 446 kts 236°
2026-04-20 17:06 -38.70027 -64.80587 36208 ft 446 kts 236°
2026-04-20 17:07 -38.74271 -64.86372 36191 ft 445 kts 236°
2026-04-20 17:07 -38.78508 -64.92155 36209 ft 445 kts 235°
2026-04-20 17:08 -38.82740 -64.97943 36222 ft 445 kts 235°
2026-04-20 17:08 -38.86973 -65.03747 36210 ft 445 kts 234°
2026-04-20 17:09 -38.91208 -65.09563 36213 ft 446 kts 235°
2026-04-20 17:09 -38.95444 -65.15392 36211 ft 447 kts 235°
2026-04-20 17:10 -38.99684 -65.21237 36209 ft 447 kts 235°
2026-04-20 17:10 -39.03927 -65.27099 36213 ft 448 kts 235°
2026-04-20 17:11 -39.08172 -65.32977 36221 ft 449 kts 234°
2026-04-20 17:11 -39.12426 -65.38876 36213 ft 450 kts 234°
2026-04-20 17:12 -39.16685 -65.44789 36218 ft 450 kts 234°
2026-04-20 17:12 -39.20945 -65.50718 36219 ft 451 kts 234°
2026-04-20 17:13 -39.25207 -65.56662 36215 ft 451 kts 234°
2026-04-20 17:13 -39.29467 -65.62614 36235 ft 452 kts 233°
2026-04-20 17:14 -39.33736 -65.68584 36219 ft 452 kts 233°
2026-04-20 17:14 -39.37310 -65.73588 36215 ft 453 kts 233°
2026-04-20 17:15 -39.41575 -65.79575 36225 ft 453 kts 233°
2026-04-20 17:15 -39.45837 -65.85568 36212 ft 452 kts 233°
2026-04-20 17:16 -39.50095 -65.91568 36215 ft 452 kts 233°
2026-04-20 17:16 -39.54321 -65.97536 36220 ft 453 kts 232°
2026-04-20 17:17 -39.58604 -66.03594 36208 ft 453 kts 232°
2026-04-20 17:17 -39.62858 -66.09624 36206 ft 453 kts 232°
2026-04-20 17:18 -39.67111 -66.15664 36214 ft 454 kts 232°
2026-04-20 17:18 -39.71368 -66.21722 36204 ft 454 kts 232°
2026-04-20 17:19 -39.75632 -66.27791 36217 ft 455 kts 231°
2026-04-20 17:19 -39.79892 -66.33884 36211 ft 456 kts 231°
2026-04-20 17:20 -39.84162 -66.39999 36203 ft 457 kts 231°
2026-04-20 17:20 -39.88433 -66.46127 36206 ft 457 kts 231°
2026-04-20 17:21 -39.92704 -66.52265 36206 ft 458 kts 231°
2026-04-20 17:21 -39.96977 -66.58419 36219 ft 458 kts 231°
2026-04-20 17:22 -40.01255 -66.64590 36205 ft 459 kts 230°
2026-04-20 17:22 -40.05532 -66.70774 36197 ft 459 kts 230°
2026-04-20 17:23 -40.09804 -66.76964 36196 ft 459 kts 230°
2026-04-20 17:23 -40.14074 -66.83164 36191 ft 459 kts 230°
2026-04-20 17:24 -40.18336 -66.89365 36187 ft 458 kts 230°
2026-04-20 17:24 -40.22592 -66.95573 36184 ft 458 kts 230°
2026-04-20 17:25 -40.26845 -67.01780 36185 ft 458 kts 229°
2026-04-20 17:25 -40.31090 -67.07992 36172 ft 458 kts 229°
2026-04-20 17:26 -40.35329 -67.14214 36175 ft 457 kts 229°
2026-04-20 17:26 -40.39565 -67.20438 36168 ft 457 kts 229°
2026-04-20 17:27 -40.43802 -67.26675 36169 ft 458 kts 228°
2026-04-20 17:27 -40.48034 -67.32913 36170 ft 458 kts 228°
2026-04-20 17:28 -40.52265 -67.39168 36165 ft 458 kts 228°
2026-04-20 17:28 -40.56498 -67.45438 36155 ft 458 kts 227°
2026-04-20 17:29 -40.60727 -67.51716 36157 ft 459 kts 227°
2026-04-20 17:29 -40.64958 -67.58004 36165 ft 458 kts 226°
2026-04-20 17:30 -40.69182 -67.64297 36159 ft 459 kts 227°
2026-04-20 17:30 -40.73404 -67.70604 36159 ft 459 kts 227°
2026-04-20 17:31 -40.77618 -67.76915 36158 ft 458 kts 227°
2026-04-20 17:31 -40.81832 -67.83235 36152 ft 458 kts 227°
2026-04-20 17:32 -40.86036 -67.89553 36149 ft 458 kts 226°
2026-04-20 17:32 -40.90234 -67.95873 36153 ft 457 kts 226°
2026-04-20 17:33 -40.94418 -68.02188 36153 ft 456 kts 226°
2026-04-20 17:33 -40.98598 -68.08510 36151 ft 456 kts 226°
2026-04-20 17:34 -41.02770 -68.14833 36153 ft 456 kts 226°
2026-04-20 17:34 -41.06937 -68.21162 36146 ft 455 kts 226°
2026-04-20 17:35 -41.11091 -68.27484 36154 ft 455 kts 226°
2026-04-20 17:35 -41.15239 -68.33809 36153 ft 454 kts 226°
2026-04-20 17:36 -41.19383 -68.40142 36153 ft 454 kts 226°
2026-04-20 17:36 -41.23528 -68.46489 36156 ft 454 kts 226°
2026-04-20 17:37 -41.27664 -68.52837 36154 ft 454 kts 226°
2026-04-20 17:37 -41.31792 -68.59186 36160 ft 454 kts 226°
2026-04-20 17:38 -41.35917 -68.65542 36157 ft 454 kts 226°
2026-04-20 17:38 -41.39904 -68.71700 36157 ft 453 kts 226°
2026-04-20 17:39 -41.44016 -68.78064 36150 ft 453 kts 226°
2026-04-20 17:39 -41.48132 -68.84447 35871 ft 458 kts 226°
2026-04-20 17:39 -41.50207 -68.87669 35472 ft 455 kts 225°
2026-04-20 17:40 -41.52252 -68.90850 35028 ft 450 kts 225°
2026-04-20 17:40 -41.54280 -68.94010 34587 ft 446 kts 225°
2026-04-20 17:40 -41.56290 -68.97147 34155 ft 443 kts 224°
2026-04-20 17:40 -41.58284 -69.00258 33676 ft 439 kts 224°
2026-04-20 17:41 -41.60260 -69.03344 33224 ft 435 kts 224°
2026-04-20 17:41 -41.62216 -69.06401 32792 ft 431 kts 225°
2026-04-20 17:41 -41.64154 -69.09433 32368 ft 427 kts 225°
2026-04-20 17:41 -41.66077 -69.12445 31950 ft 424 kts 225°
2026-04-20 17:42 -41.67983 -69.15432 31544 ft 421 kts 225°
2026-04-20 17:42 -41.69872 -69.18397 31144 ft 417 kts 225°
2026-04-20 17:42 -41.71748 -69.21343 30737 ft 414 kts 226°
2026-04-20 17:42 -41.73605 -69.24263 30353 ft 411 kts 226°
2026-04-20 17:43 -41.75452 -69.27167 29907 ft 408 kts 226°
2026-04-20 17:43 -41.77281 -69.30050 29522 ft 403 kts 226°
2026-04-20 17:43 -41.79078 -69.32886 29262 ft 396 kts 226°
2026-04-20 17:43 -41.80849 -69.35683 28984 ft 392 kts 226°
2026-04-20 17:44 -41.82621 -69.38479 28696 ft 393 kts 226°
2026-04-20 17:44 -41.84370 -69.41245 28436 ft 386 kts 226°
2026-04-20 17:44 -41.86095 -69.43977 28051 ft 382 kts 226°
2026-04-20 17:44 -41.87806 -69.46688 27647 ft 380 kts 226°
2026-04-20 17:45 -41.89506 -69.49383 27249 ft 377 kts 226°
2026-04-20 17:45 -41.91196 -69.52066 26847 ft 375 kts 226°
2026-04-20 17:45 -41.92872 -69.54728 26459 ft 372 kts 227°
2026-04-20 17:45 -41.94536 -69.57373 26065 ft 370 kts 227°
2026-04-20 17:46 -41.96191 -69.60007 25688 ft 368 kts 227°
2026-04-20 17:46 -41.97836 -69.62627 25304 ft 366 kts 227°
2026-04-20 17:46 -41.99473 -69.65236 24920 ft 364 kts 227°
2026-04-20 17:46 -42.01100 -69.67832 24532 ft 362 kts 227°
2026-04-20 17:47 -42.02721 -69.70421 24140 ft 361 kts 227°
2026-04-20 17:47 -42.04336 -69.73003 23743 ft 361 kts 227°
2026-04-20 17:47 -42.05948 -69.75581 23298 ft 359 kts 227°
2026-04-20 17:47 -42.07548 -69.78143 22879 ft 357 kts 227°
2026-04-20 17:48 -42.09139 -69.80693 22485 ft 354 kts 227°
2026-04-20 17:48 -42.10717 -69.83225 22106 ft 351 kts 227°
2026-04-20 17:48 -42.12283 -69.85740 21723 ft 349 kts 227°
2026-04-20 17:48 -42.13838 -69.88238 21344 ft 347 kts 227°
2026-04-20 17:49 -42.15380 -69.90718 20976 ft 344 kts 227°
2026-04-20 17:49 -42.16912 -69.93183 20614 ft 342 kts 227°
2026-04-20 17:49 -42.18434 -69.95635 20252 ft 340 kts 228°
2026-04-20 17:49 -42.19948 -69.98075 19888 ft 338 kts 228°
2026-04-20 17:50 -42.21453 -70.00504 19529 ft 337 kts 228°
2026-04-20 17:50 -42.22952 -70.02923 19167 ft 335 kts 228°
2026-04-20 17:50 -42.24446 -70.05337 18802 ft 334 kts 228°
2026-04-20 17:50 -42.25935 -70.07746 18434 ft 334 kts 228°
2026-04-20 17:51 -42.27416 -70.10143 18041 ft 332 kts 228°
2026-04-20 17:51 -42.28894 -70.12537 17662 ft 330 kts 228°
2026-04-20 17:51 -42.30361 -70.14915 17283 ft 328 kts 228°
2026-04-20 17:51 -42.31325 -70.16480 17042 ft 327 kts 228°
2026-04-20 17:52 -42.32776 -70.18835 16690 ft 325 kts 229°
2026-04-20 17:52 -42.34217 -70.21175 16338 ft 323 kts 229°
2026-04-20 17:52 -42.35647 -70.23501 15992 ft 321 kts 229°
2026-04-20 17:52 -42.37072 -70.25820 15643 ft 319 kts 229°
2026-04-20 17:53 -42.38489 -70.28127 15296 ft 318 kts 229°
2026-04-20 17:53 -42.39895 -70.30420 14955 ft 316 kts 229°
2026-04-20 17:53 -42.41297 -70.32706 14615 ft 315 kts 229°
2026-04-20 17:53 -42.42695 -70.34988 14278 ft 314 kts 229°
2026-04-20 17:54 -42.44106 -70.37293 13928 ft 313 kts 229°
2026-04-20 17:54 -42.45494 -70.39562 13544 ft 312 kts 230°
2026-04-20 17:54 -42.46875 -70.41820 13178 ft 311 kts 230°
2026-04-20 17:54 -42.48230 -70.44040 12832 ft 309 kts 230°
2026-04-20 17:55 -42.49596 -70.46278 12484 ft 307 kts 230°
2026-04-20 17:55 -42.50968 -70.48529 12139 ft 305 kts 230°
2026-04-20 17:55 -42.52316 -70.50738 11810 ft 303 kts 231°
2026-04-20 17:55 -42.53655 -70.52936 11480 ft 301 kts 231°
2026-04-20 17:56 -42.54984 -70.55121 11138 ft 300 kts 230°
2026-04-20 17:56 -42.56307 -70.57297 10806 ft 298 kts 231°
2026-04-20 17:56 -42.57626 -70.59471 10449 ft 298 kts 231°
2026-04-20 17:56 -42.58929 -70.61621 10233 ft 292 kts 231°
2026-04-20 17:57 -42.60200 -70.63718 10081 ft 284 kts 231°
2026-04-20 17:57 -42.61437 -70.65764 9890 ft 278 kts 231°
2026-04-20 17:57 -42.62658 -70.67785 9589 ft 276 kts 231°
2026-04-20 17:57 -42.63870 -70.69790 9300 ft 273 kts 231°
2026-04-20 17:58 -42.65070 -70.71777 9019 ft 271 kts 231°
2026-04-20 17:58 -42.66259 -70.73747 8735 ft 269 kts 232°
2026-04-20 17:58 -42.67440 -70.75706 8458 ft 267 kts 232°
2026-04-20 17:58 -42.68617 -70.77650 8167 ft 266 kts 231°
2026-04-20 17:59 -42.69807 -70.79565 7886 ft 264 kts 231°
2026-04-20 17:59 -42.70991 -70.81458 7608 ft 262 kts 231°
2026-04-20 17:59 -42.72169 -70.83345 7328 ft 261 kts 231°
2026-04-20 17:59 -42.73341 -70.85219 7053 ft 260 kts 230°
2026-04-20 18:00 -42.74725 -70.86762 6837 ft 257 kts 212°
2026-04-20 18:00 -42.76260 -70.87956 6660 ft 251 kts 212°
2026-04-20 18:00 -42.77750 -70.89147 6503 ft 244 kts 213°
2026-04-20 18:00 -42.79157 -70.90306 6415 ft 228 kts 219°
2026-04-20 18:01 -42.80108 -70.91915 6221 ft 212 kts 246°
2026-04-20 18:01 -42.80851 -70.93613 5930 ft 204 kts 234°
2026-04-20 18:01 -42.81657 -70.95118 5650 ft 191 kts 239°
2026-04-20 18:01 -42.82345 -70.96592 5410 ft 178 kts 240°
2026-04-20 18:02 -42.82992 -70.97977 5180 ft 170 kts 239°
2026-04-20 18:02 -42.83616 -70.99298 4996 ft 157 kts 240°
2026-04-20 18:02 -42.84193 -71.00513 4760 ft 148 kts 241°
2026-04-20 18:02 -42.84748 -71.01686 4547 ft 146 kts 240°
2026-04-20 18:03 -42.85305 -71.02862 4340 ft 150 kts 240°
2026-04-20 18:03 -42.85876 -71.04065 4134 ft 152 kts 239°
2026-04-20 18:03 -42.86447 -71.05271 3881 ft 150 kts 238°
2026-04-20 18:03 -42.87006 -71.06446 3691 ft 147 kts 238°
2026-04-20 18:04 -42.87564 -71.07624 3469 ft 147 kts 237°
2026-04-20 18:04 -42.88123 -71.08794 3243 ft 147 kts 238°
2026-04-20 18:04 -42.88658 -71.09957 3035 ft 144 kts 236°
2026-04-20 18:04 -42.89210 -71.11086 2853 ft 144 kts 238°
2026-04-20 18:05 -42.90237 -71.13253 2637 ft 106 kts 237°
2026-04-20 18:05 -42.90520 -71.13846 2636 ft 43 kts 237°
2026-04-20 18:05 -42.90626 -71.14072 2634 ft 25 kts 237°
2026-04-20 18:06 -42.90705 -71.14242 2636 ft 19 kts 246°
2026-04-20 18:06 -42.90738 -71.14396 2635 ft 15 kts 260°
2026-04-20 18:06 -42.90742 -71.14512 2636 ft 10 kts 268°
2026-04-20 18:06 -42.90732 -71.14569 2636 ft 4 kts 306°
2026-04-20 18:07 -42.90711 -71.14590 2657 ft 4 kts 330°
2026-04-20 18:07 -42.90696 -71.14603 2635 ft 1 kts 325°
2026-04-20 18:07 -42.90691 -71.14610 2635 ft 1 kts 315°
2026-04-20 18:07 -42.90687 -71.14619 2635 ft 2 kts 298°
2026-04-20 18:08 -42.90687 -71.14635 2635 ft 2 kts 260°
2026-04-20 18:08 -42.90689 -71.14651 2635 ft 2 kts 270°
2026-04-20 18:08 -42.90683 -71.14666 2635 ft 2 kts 304°
2026-04-20 18:08 -42.90673 -71.14676 2635 ft 2 kts 331°
2026-04-20 18:09 -42.90666 -71.14681 2635 ft 0 kts 329°